Location: Kalberh�ni
(46.4610°N, 7.2453°E)
Time: 07:04:10
(UTC+00:00)

ATLAS 3B R/B - Pass Details

Date: 20 June 2021
Orbit: 1003 x 1191 km, 63.8° (Epoch: 21 July)

Event Time Altitude Azimuth Distance (km) Brightness Sun altitude
Rises 21:47:58 0° 233° (SW) 3,725 5.4 -16.2°
Reaches altitude 10° 21:50:35 10° 237° (WSW) 2,787 4.8 -16.4°
Maximum altitude 21:57:00 57° 316° (NW) 1,208 3.3 -16.8°
Drops below altitude 10° 22:03:42 10° 34° (NE) 2,897 5.4 -17.2°
Sets 22:06:29 0° 39° (NE) 3,883 6.1 -17.4°
